This is the latest recevied weather packets stored in our database for station/object KB1ZFK. If no packets are shown the sender has not sent any weather packets the latest 10 day(s).
| Time | Temp. | Humidity | Pressure | Rain* | Wind** | Luminosity | Snow |
|---|---|---|---|---|---|---|---|
| 1777935508 | 19.44° C | 39% | 1006.2 hPa | 0 mm | - | 22 W/m² | - |
| 1777935203 | 19.44° C | 39% | 1005.9 hPa | 0 mm | - | 21 W/m² | - |
| 1777934901 | 19.44° C | 38% | 1005.8 hPa | 0 mm | - | 23 W/m² | - |
| 1777934598 | 20° C | 39% | 1005.9 hPa | 0 mm | - | 27 W/m² | - |
| 1777934295 | 20° C | 38% | 1005.7 hPa | 0 mm | - | 28 W/m² | - |
| 1777933990 | 20° C | 39% | 1005.8 hPa | 0 mm | - | 41 W/m² | - |
| 1777933687 | 20° C | 38% | 1005.5 hPa | 0 mm | - | 36 W/m² | - |
| 1777933384 | 20° C | 37% | 1005.7 hPa | 0 mm | - | 37 W/m² | - |
| 1777933082 | 20° C | 37% | 1005.7 hPa | 0 mm | - | 38 W/m² | - |
| 1777932779 | 20° C | 37% | 1005.7 hPa | 0 mm | - | 56 W/m² | - |
| 1777932475 | 20° C | 37% | 1005.7 hPa | 0 mm | - | 55 W/m² | - |
| 1777932172 | 20° C | 36% | 1005.9 hPa | 0 mm | - | 80 W/m² | - |
| 1777931870 | 20.56° C | 36% | 1005.9 hPa | 0 mm | - | 111 W/m² | - |
| 1777931566 | 20.56° C | 38% | 1005.9 hPa | 0 mm | - | 184 W/m² | - |
| 1777931262 | 20.56° C | 37% | 1005.9 hPa | 0 mm | - | 87 W/m² | - |
| 1777930959 | 20° C | 36% | 1005.8 hPa | 0 mm | - | 78 W/m² | - |
| 1777930656 | 20.56° C | 36% | 1006.1 hPa | 0 mm | - | 68 W/m² | - |
| 1777930352 | 20.56° C | 36% | 1005.6 hPa | 0 mm | - | 113 W/m² | - |
| 1777930049 | 20° C | 36% | 1005.8 hPa | 0 mm | - | 83 W/m² | - |
| 1777929746 | 20° C | 38% | 1005.9 hPa | 0 mm | - | 103 W/m² | - |
| 1777929443 | 20° C | 38% | 1005.9 hPa | 0 mm | - | 65 W/m² | - |
| 1777929139 | 20° C | 38% | 1005.8 hPa | 0 mm | - | 109 W/m² | - |
| 1777928837 | 20° C | 37% | 1005.7 hPa | 0 mm | - | 77 W/m² | - |
| 1777928534 | 20.56° C | 35% | 1005.8 hPa | 0 mm | - | 80 W/m² | - |
| 1777928231 | 20.56° C | 36% | 1005.8 hPa | 0 mm | - | 238 W/m² | - |
* Rain latest hour (hover to see other rain measurements)
** Current wind speed in m/s (hover to see current wind gust speed)